{"data":{"norad_id":41888,"epoch":"2026-05-25T01:56:06.565056Z","epoch_age_seconds":64734,"freshness":"FRESH","line1":"1 41888U 16078E   26145.08063154  .00025328  00000+0  31792-3 0  9990","line2":"2 41888  34.9444  34.8793 0009933 313.2927  46.6968 15.58648863525368","mean_motion":15.58648863,"eccentricity":0.0009933,"inclination_deg":34.9444,"raan_deg":34.8793,"arg_perigee_deg":313.2927,"mean_anomaly_deg":46.6968,"bstar":0.00031792,"rev_number":52536,"period_min":92.387710547478,"perigee_km":384.84218629148,"apogee_km":398.29087932976,"semimajor_km":6769.7035328106,"source":"CELESTRAK","updated_at":"2026-05-25T13:38:11.919965Z"}}